Location: Elmsmere
(40.9284°N, 73.8207°W)
Time: 10:07:21
(UTC+00:00)

Cosmos 2263 Rocket - Pass Details

Date: 29 October 2020
Orbit: 822 x 850 km, 71.0° (Epoch: 23 November)

Event Time Altitude Azimuth Distance (km) Brightness Sun altitude
Rises 23:43:42 0° 344° (NNW) 3,420 5.6 -21.2°
Reaches altitude 10° 23:46:28 10° 355° (N) 2,483 4.7 -21.7°
Enters shadow 23:50:13 28° 33° (NNE) 1,557 3.3 -22.4°
